TimeEDT,TemperatureF,Dew PointF,Humidity,Sea Level PressureIn,VisibilityMPH,Wind Direction,Wind SpeedMPH,Gust SpeedMPH,PrecipitationIn,Events,Conditions,WindDirDegrees,DateUTC
12:53 AM,68.0,66.9,96,30.24,5.0,SW,11.5,-,N/A,,Overcast,230,2013-07-04 04:53:00
1:53 AM,68.0,66.9,96,30.22,5.0,SW,13.8,-,N/A,,Overcast,220,2013-07-04 05:53:00
2:53 AM,68.0,66.9,96,30.22,3.0,SW,13.8,-,N/A,,Overcast,230,2013-07-04 06:53:00
3:11 AM,68.0,66.2,94,30.22,2.0,SW,12.7,-,N/A,,Overcast,230,2013-07-04 07:11:00
3:18 AM,68.0,66.2,94,30.21,1.2,WSW,13.8,-,N/A,,Overcast,240,2013-07-04 07:18:00
3:49 AM,68.0,66.2,94,30.21,0.8,WSW,13.8,-,N/A,,Mist,240,2013-07-04 07:49:00
3:53 AM,68.0,66.9,96,30.21,0.8,WSW,12.7,-,N/A,,Mist,240,2013-07-04 07:53:00
4:00 AM,68.0,66.2,94,30.21,1.0,WSW,13.8,-,N/A,,Mist,240,2013-07-04 08:00:00
4:24 AM,68.0,66.2,94,30.21,2.0,WSW,13.8,-,N/A,,Overcast,240,2013-07-04 08:24:00
4:53 AM,68.0,66.9,96,30.22,2.5,WSW,12.7,-,N/A,,Overcast,240,2013-07-04 08:53:00
5:17 AM,68.0,66.2,94,30.22,1.5,WSW,13.8,-,N/A,,Overcast,250,2013-07-04 09:17:00
5:32 AM,68.0,66.2,94,30.23,0.5,WSW,13.8,-,N/A,Fog,Fog,240,2013-07-04 09:32:00
5:51 AM,68.0,66.2,94,30.23,0.2,WSW,12.7,-,N/A,Fog,Fog,240,2013-07-04 09:51:00
5:53 AM,68.0,66.9,96,30.23,0.2,WSW,12.7,-,N/A,Fog,Fog,250,2013-07-04 09:53:00
6:34 AM,69.8,68.0,94,30.24,0.2,WSW,13.8,-,N/A,Fog,Fog,250,2013-07-04 10:34:00
6:53 AM,69.1,68.0,96,30.24,0.2,WSW,15.0,-,N/A,Fog,Fog,250,2013-07-04 10:53:00
7:53 AM,69.1,69.1,100,30.25,0.2,WSW,10.4,-,N/A,Fog,Fog,250,2013-07-04 11:53:00
8:53 AM,70.0,69.1,97,30.25,0.2,WSW,16.1,-,N/A,Fog,Fog,250,2013-07-04 12:53:00
9:11 AM,69.8,69.8,100,30.25,0.8,WSW,13.8,-,N/A,,Mist,250,2013-07-04 13:11:00
9:12 AM,69.8,69.8,100,30.25,0.5,WSW,12.7,-,N/A,Fog,Fog,240,2013-07-04 13:12:00
9:53 AM,71.1,69.1,93,30.24,0.5,WSW,13.8,-,0.01,Fog,Fog,240,2013-07-04 13:53:00
10:01 AM,71.6,69.8,94,30.24,1.2,WSW,17.3,-,N/A,,Overcast,240,2013-07-04 14:01:00
10:12 AM,71.6,69.8,94,30.24,2.0,WSW,15.0,-,N/A,,Overcast,240,2013-07-04 14:12:00
10:24 AM,71.6,69.8,94,30.24,1.2,WSW,15.0,-,N/A,,Overcast,250,2013-07-04 14:24:00
10:53 AM,71.1,69.1,93,30.24,0.5,WSW,17.3,23.0,N/A,Fog,Fog,240,2013-07-04 14:53:00
11:53 AM,73.0,69.1,87,30.23,2.0,WSW,17.3,-,N/A,,Overcast,250,2013-07-04 15:53:00
12:53 PM,73.9,70.0,87,30.22,2.0,WSW,16.1,24.2,N/A,,Overcast,240,2013-07-04 16:53:00
1:53 PM,73.9,70.0,87,30.22,2.0,WSW,16.1,-,N/A,,Overcast,240,2013-07-04 17:53:00
2:53 PM,72.0,69.1,91,30.20,2.0,SW,16.1,-,N/A,,Overcast,230,2013-07-04 18:53:00
3:53 PM,71.1,68.0,90,30.19,2.0,SW,13.8,-,N/A,,Overcast,230,2013-07-04 19:53:00
4:21 PM,71.6,68.0,88,30.18,0.5,SW,13.8,-,N/A,Fog,Fog,230,2013-07-04 20:21:00
4:53 PM,70.0,68.0,93,30.18,0.5,SW,15.0,-,0.01,Fog,Fog,230,2013-07-04 20:53:00
5:18 PM,69.8,68.0,94,30.17,0.2,SW,12.7,-,N/A,Fog,Fog,230,2013-07-04 21:18:00
5:27 PM,69.8,68.0,94,30.17,1.0,SW,13.8,-,N/A,,Mostly Cloudy,230,2013-07-04 21:27:00
5:53 PM,70.0,68.0,93,30.18,0.5,WSW,15.0,-,N/A,Fog,Fog,240,2013-07-04 21:53:00
6:39 PM,69.8,66.2,88,30.18,1.5,SW,11.5,-,N/A,,Mostly Cloudy,220,2013-07-04 22:39:00
6:53 PM,69.1,68.0,96,30.18,0.8,SW,13.8,-,N/A,,Overcast,230,2013-07-04 22:53:00
7:08 PM,69.8,68.0,94,30.18,0.2,WSW,11.5,-,N/A,Fog,Fog,240,2013-07-04 23:08:00
7:22 PM,68.0,66.2,94,30.19,0.2,WSW,13.8,-,N/A,Fog,Fog,240,2013-07-04 23:22:00
7:53 PM,68.0,66.9,96,30.18,0.2,WSW,15.0,-,N/A,Fog,Fog,240,2013-07-04 23:53:00
8:46 PM,68.0,66.2,94,30.19,0.2,WSW,12.7,-,N/A,Fog,Fog,240,2013-07-05 00:46:00
8:53 PM,68.0,66.9,96,30.19,0.2,WSW,12.7,-,N/A,Fog,Fog,240,2013-07-05 00:53:00
9:26 PM,68.0,66.2,94,30.20,0.2,WSW,15.0,-,N/A,Fog,Fog,240,2013-07-05 01:26:00
9:34 PM,68.0,66.2,94,30.20,0.2,WSW,16.1,-,N/A,Fog,Fog,240,2013-07-05 01:34:00
9:53 PM,68.0,68.0,100,30.20,0.2,WSW,13.8,-,N/A,Fog,Fog,240,2013-07-05 01:53:00
10:53 PM,69.1,68.0,96,30.19,0.2,WSW,13.8,-,N/A,Fog,Fog,240,2013-07-05 02:53:00
11:06 PM,69.8,68.0,94,30.19,0.5,WSW,12.7,-,N/A,Fog,Fog,240,2013-07-05 03:06:00
11:14 PM,69.8,68.0,94,30.19,0.8,WSW,12.7,-,N/A,,Mist,240,2013-07-05 03:14:00
11:26 PM,69.8,68.0,94,30.19,1.5,WSW,11.5,-,N/A,,Overcast,240,2013-07-05 03:26:00
11:32 PM,69.8,68.0,94,30.19,3.0,WSW,13.8,-,N/A,,Overcast,250,2013-07-05 03:32:00
11:53 PM,69.1,68.0,96,30.19,5.0,WSW,11.5,-,N/A,,Overcast,240,2013-07-05 03:53:00